Regional Weather Roundup
Issued by NWS

Home | Current Version | Previous Version | Graphics & Text | Print | Product List | Glossary On
Versions: 1 2 3 4 5 6 7 8 9 10 11 12 13 14 15 16 17 18 19 20 21 22 23 24 25 26 27 28 29 30 31 32 33 34 35 36 37 38 39 40 41 42 43 44 45 46 47 48 49 50
000
ASUS45 KABQ 221610
RWRNM
NEW MEXICO REGIONAL WEATHER ROUNDUP
NATIONAL WEATHER SERVICE ALBUQUERQUE NM
1000 AM MDT MON MAY 22 2017

NOTE: "FAIR" MEANS FEW OR NO CLOUDS BELOW 12,000 FEET AGL WITH NO
       SIGNIFICANT WEATHER OR OBSTRUCTIONS TO VISION.

      THIS PRODUCT IS RELEASED AS TWO VERSIONS.  ONE VERSION NEAR
      THE TOP OF THE HOUR CONTAINING PRELIMINARY DATA FROM ALBUQUERQUE
      AND OTHER STATIONS.  A FINAL VERSION WITH ADDITIONAL DATA IS
      ISSUED ABOUT 10 MINUTES AFTER THE HOUR.

NMZ501-503-504-510>518-221700-
NORTHWEST PLATEAU/NORTHCENTRAL MOUNTAINS

CITY           SKY/WX    TMP DP  RH WIND       PRES   REMARKS
FARMINGTON     FAIR      61  36  39 W17       30.17S
LOS ALAMOS     FAIR      59  27  29 SE9       30.21F
SANTA FE       FAIR      64  36  35 SW7       30.16F
TAOS           FAIR      57  30  35 NW5       30.22F
ANGEL FIRE     FAIR      51  30  43 W15G24    30.25S

$$
NMZ402-403-502-505>509-221700-
WESTCENTRAL MOUNTAINS/SOUTHWEST MOUNTAINS

CITY           SKY/WX    TMP DP  RH WIND       PRES   REMARKS
GALLUP         FAIR      59  34  39 W7        30.25S
GRANTS         FAIR      63  30  29 NW13G18   30.24F
SILVER CITY    FAIR      75  19  12 W6        30.14S

$$
NMZ407-409-411-412-221700-
SOUTHERN DESERTS

CITY           SKY/WX    TMP DP  RH WIND       PRES   REMARKS
DEMING         FAIR      78  21  12 E8        30.08S
LAS CRUCES     FAIR      75  35  23 CALM      30.10S
HOLLOMAN AFB   FAIR      73  51  45 CALM      30.11S
ALAMOGORDO     FAIR      73  50  43 W5        30.09S
T OR C         FAIR      75  23  14 NE15G21   30.11S

$$
NMZ519>523-221700-
CENTRAL VALLEYS/CENTRAL HIGHLANDS

CITY           SKY/WX    TMP DP  RH WIND       PRES   REMARKS
ALBUQUERQUE    FAIR      68  30  24 N9        30.16F
DOUBLE EAGLE   MOSUNNY   66  32  28 NW17G23   30.18F
MORIARTY ARPT  FAIR      62  45  54 CALM      30.19F
CLINES CORNERS FAIR      62  36  37 W13       30.21S
BELEN          FAIR      70  27  20 N14G20    30.16S
SOCORRO        FAIR      71  24  17 N12       30.14S

$$
NMZ524>526-539-540-221700-
SOUTHCENTRAL MOUNTAINS

CITY           SKY/WX    TMP DP  RH WIND       PRES   REMARKS
RUIDOSO        FAIR      68  32  26 NW7       30.21F

$$
NMZ527>531-221700-
NORTHEAST HIGHLANDS/NORTHEAST PLAINS

CITY           SKY/WX    TMP DP  RH WIND       PRES   REMARKS
LAS VEGAS      CLOUDY    52  45  77 CALM      30.20S
RATON          CLOUDY    54  41  61 NE13      30.20S
CLAYTON        CLOUDY    55  48  77 NW17      30.15F

$$
NMZ532>537-221700-
EASTCENTRAL PLAINS

CITY           SKY/WX    TMP DP  RH WIND       PRES   REMARKS
SANTA ROSA     FAIR      62  51  66 NE6       30.13F
TUCUMCARI      CLOUDY    60  53  77 NW7       30.11F
CANNON AFB     CLOUDY    60  58  94 W7        30.14S
CLOVIS AIRPORT CLOUDY    61  50  67 W5        30.13F

$$
NMZ028-029-538-221700-
SOUTHEAST PLAINS

CITY           SKY/WX    TMP DP  RH WIND       PRES   REMARKS
ROSWELL        CLOUDY    61  55  81 S6        30.09F
ARTESIA        CLOUDY    63  61  94 SE6       30.09F
CARLSBAD       CLOUDY    61  59  93 SE5       30.07F
HOBBS          CLOUDY    59  57  94 SE8       30.10F


$$




USA.gov is the U.S. government's official web portal to all federal, state and local government web resources and services.